This is the latest recevied weather packets stored in our database for station/object N7SWJ. If no packets are shown the sender has not sent any weather packets the latest 10 day(s).
| Time | Temp. | Humidity | Pressure | Rain* | Wind** | Luminosity | Snow |
|---|---|---|---|---|---|---|---|
| 1777978606 | 2.78° C | 93% | 1015.5 hPa | 1.78 mm | - | 0 W/m² | - |
| 1777978301 | 2.78° C | 93% | 1015.4 hPa | 0 mm | - | 0 W/m² | - |
| 1777977999 | 2.78° C | 93% | 1015.2 hPa | 1.27 mm | - | 0 W/m² | - |
| 1777977696 | 2.78° C | 93% | 1015.5 hPa | 1.27 mm | - | 0 W/m² | - |
| 1777977392 | 3.33° C | 93% | 1015.5 hPa | 0 mm | - | 0 W/m² | - |
| 1777977090 | 3.33° C | 92% | 1015.3 hPa | 0 mm | - | 0 W/m² | - |
| 1777976787 | 3.33° C | 92% | 1015.2 hPa | 0 mm | - | 0 W/m² | - |
| 1777976485 | 3.89° C | 92% | 1015.2 hPa | 1.78 mm | - | 0 W/m² | - |
| 1777976183 | 3.89° C | 92% | 1015.3 hPa | 1.78 mm | - | 0 W/m² | - |
| 1777975879 | 3.89° C | 92% | 1015 hPa | 0 mm | - | 0 W/m² | - |
| 1777975576 | 4.44° C | 91% | 1015.2 hPa | 1.27 mm | - | 0 W/m² | - |
| 1777975273 | 4.44° C | 91% | 1015 hPa | 1.27 mm | - | 0 W/m² | - |
| 1777974969 | 5° C | 90% | 1015 hPa | 1.78 mm | - | 0 W/m² | - |
| 1777974666 | 5° C | 90% | 1015.1 hPa | 1.78 mm | - | 0 W/m² | - |
| 1777974362 | 5° C | 90% | 1014.8 hPa | 1.78 mm | - | 0 W/m² | - |
| 1777974058 | 5° C | 90% | 1014.8 hPa | 1.78 mm | - | 0 W/m² | - |
| 1777973754 | 5° C | 90% | 1014.8 hPa | 0 mm | - | 0 W/m² | - |
| 1777973452 | 5.56° C | 90% | 1015.1 hPa | 0 mm | - | 0 W/m² | - |
| 1777973149 | 5.56° C | 89% | 1014.8 hPa | 0 mm | - | 0 W/m² | - |
| 1777972848 | 5.56° C | 89% | 1015 hPa | 1.27 mm | - | 0 W/m² | - |
| 1777972544 | 6.11° C | 89% | 1015.1 hPa | 1.27 mm | - | 0 W/m² | - |
| 1777972243 | 6.11° C | 89% | 1014.7 hPa | 1.78 mm | - | 0 W/m² | - |
| 1777971940 | 6.11° C | 88% | 1014.4 hPa | 1.78 mm | - | 0 W/m² | - |
| 1777971638 | 6.11° C | 88% | 1014.4 hPa | 0 mm | - | 0 W/m² | - |
| 1777971336 | 6.11° C | 88% | 1014.5 hPa | 0 mm | - | 0 W/m² | - |
* Rain latest hour (hover to see other rain measurements)
** Current wind speed in m/s (hover to see current wind gust speed)